{"data":{"norad_id":67504,"epoch":"2026-05-24T23:42:33.145632Z","epoch_age_seconds":69860,"freshness":"FRESH","line1":"1 67504U 26012M   26144.98788363  .00018837  00000+0  69191-3 0  9997","line2":"2 67504  42.9973 243.2520 0002227 268.8339  91.2257 15.27597927 19435","mean_motion":15.27597927,"eccentricity":0.0002227,"inclination_deg":42.9973,"raan_deg":243.252,"arg_perigee_deg":268.8339,"mean_anomaly_deg":91.2257,"bstar":0.00069191,"rev_number":1943,"period_min":94.265642453965,"perigee_km":481.46744248822,"apogee_km":484.52339086661,"semimajor_km":6861.1324166774,"source":"CELESTRAK","updated_at":"2026-05-25T13:38:21.568701Z"}}